Ketchikan, AK

9:03 PM AKDT on August 21, 2018 (GMT -0800)
Ketchikan International

Weather History for PAKT - February, 2018

Change the Weather History Date:

Sunday, February 18, 2018

  Actual Average Record
Temperature  
Mean Temperature 28 °F -  
Max Temperature 33 °F 43 °F 55 °F (1958)
Min Temperature 24 °F 32 °F 19 °F (1952)
Degree Days  
Heating Degree Days 36    
Moisture  
Dew Point 11 °F    
Average Humidity 48    
Maximum Humidity 61    
Minimum Humidity 29    
Precipitation  
Precipitation 0.00 in - - ()
Sea Level Pressure  
Sea Level Pressure 30.46 in    
Wind  
Wind Speed 9 mph (NW)    
Max Wind Speed 17 mph    
Max Gust Speed 25 mph    
Visibility 10 miles    
Events      
Averages and records for this station are not official NWS values.
T = Trace of Precipitation, MM = Missing Value Source: NWS Daily Summary

Daily Weather History Graph

Daily Weather History Graph

Search for Another Location

Airport or City:

Astronomy

Feb. 18, 2018 Rise Set
Actual Time 7:02 AM AKST 4:59 PM AKST
Civil Twilight 6:25 AM AKST 5:37 PM AKST
Nautical Twilight 5:42 AM AKST 6:19 PM AKST
Astronomical Twilight 5:00 AM AKST 7:02 PM AKST
Moon 8:23 AM AKST (2/18) 8:29 PM AKST (2/18)
Length of Visible Light 11h 11m
Length of Day
9h 56m
Waxing Crescent, 9% of the Moon is Illuminated
Feb 18
Waxing Crescent
Feb 22
First Quarter
Mar 1
Full
Mar 9
Last Quarter
Mar 17
New

Hourly Weather History & Observations

Time (AKST) Temp. Windchill Dew Point Humidity Pressure Visibility Wind Dir Wind Speed Gust Speed Precip Events Conditions
12:53 AM 28.0 °F 17.5 °F 10.9 °F 49% 30.40 in 10.0 mi North 12.7 mph - N/A   Clear
1:53 AM 28.0 °F 20.0 °F 12.9 °F 53% 30.43 in 10.0 mi North 8.1 mph 19.6 mph N/A   Clear
2:53 AM 27.0 °F 18.7 °F 9.0 °F 47% 30.45 in 10.0 mi NW 8.1 mph - N/A   Clear
3:53 AM 28.0 °F 18.6 °F 12.9 °F 53% 30.46 in 10.0 mi NW 10.4 mph - N/A   Clear
4:53 AM 28.0 °F 16.5 °F 12.0 °F 51% 30.48 in 10.0 mi North 15.0 mph - N/A   Clear
5:53 AM 27.0 °F 19.5 °F 9.0 °F 47% 30.48 in 10.0 mi North 6.9 mph - N/A   Clear
6:53 AM 24.8 °F 19.1 °F 8.6 °F 50% 30.49 in 10.0 mi WNW 4.6 mph - N/A   Clear
7:53 AM 27.0 °F 21.6 °F 7.0 °F 43% 30.51 in 10.0 mi Variable 4.6 mph - N/A   Clear
8:53 AM 28.4 °F 20.4 °F 10.4 °F 47% 30.51 in 10.0 mi North 8.1 mph - N/A   Clear
9:53 AM 32.0 °F 26.4 °F 6.8 °F 35% 30.50 in 10.0 mi NW 5.8 mph - N/A   Clear
10:53 AM 33.1 °F 25.5 °F 3.9 °F 29% 30.49 in 10.0 mi WNW 9.2 mph - N/A   Clear
11:53 AM 33.8 °F 26.4 °F 12.2 °F 41% 30.49 in 10.0 mi NW 9.2 mph - N/A   Clear
12:53 PM 33.8 °F 24.8 °F 10.4 °F 38% 30.48 in 10.0 mi NW 12.7 mph 19.6 mph N/A   Clear
1:53 PM 33.8 °F 23.9 °F 10.4 °F 38% 30.48 in 10.0 mi NW 15.0 mph - N/A   Clear
2:53 PM 33.8 °F 23.5 °F 12.2 °F 41% 30.47 in 10.0 mi NNW 16.1 mph 25.3 mph N/A   Clear
3:53 PM 32.0 °F 20.8 °F 12.2 °F 44% 30.46 in 10.0 mi NNW 17.3 mph - N/A   Clear
4:53 PM 30.2 °F 20.8 °F 12.2 °F 47% 30.47 in 10.0 mi NW 11.5 mph - N/A   Clear
5:53 PM 30.0 °F - 12.0 °F 47% 30.47 in 10.0 mi Calm Calm - N/A   Clear
6:53 PM 28.0 °F 24.2 °F 14.0 °F 56% 30.47 in 10.0 mi WNW 3.5 mph - N/A   Clear
7:53 PM 28.9 °F 21.1 °F 14.0 °F 54% 30.46 in 10.0 mi West 8.1 mph - N/A   Clear
8:53 PM 28.9 °F 25.2 °F 15.1 °F 56% 30.44 in 10.0 mi West 3.5 mph - N/A   Clear
9:53 PM 28.9 °F 21.1 °F 17.1 °F 61% 30.43 in 10.0 mi NW 8.1 mph - N/A   Clear
10:53 PM 28.9 °F 22.8 °F 14.0 °F 54% 30.42 in 10.0 mi WNW 5.8 mph - N/A   Clear
11:53 PM 26.1 °F - 14.0 °F 60% 30.40 in 10.0 mi Calm Calm - N/A   Clear